Regional Weather Roundup
Issued by NWS

Home | Current Version | Previous Version | Graphics & Text | Print | Product List | Glossary On
Versions: 1 2 3 4 5 6 7 8 9 10 11 12 13 14 15 16 17 18 19 20 21 22 23 24 25 26 27 28 29 30 31 32 33 34 35 36 37 38 39 40 41 42 43 44 45 46 47 48 49 50
000
ASUS43 KMPX 122101
RWRMN
WEATHER ROUNDUP FOR MINNESOTA
NATIONAL WEATHER SERVICE TWIN CITIES/CHANHASSEN MN
300 PM CST TUE DEC 12 2017


NOTE: "FAIR" INDICATES FEW OR NO CLOUDS BELOW 12,000 FEET WITH NO
SIGNIFICANT WEATHER AND/OR OBSTRUCTIONS TO VISIBILITY. N/A MEANS
CURRENT SKY AND/OR WEATHER CONDITIONS ARE NOT AVAILABLE.

MNZ060>063-068>070-122200-
   Twin Cities Metro

CITY           SKY/WX    TMP DP  RH WIND       PRES   REMARKS
TWIN CITIES    FLURRIES  19  13  77 SE9       29.99F WCI   8
ST PAUL        LGT SNOW  17  11  77 SE9       30.02F WCI   6
CRYSTAL        FLURRIES  18  10  71 S9        29.98F WCI   7
BLAINE         LGT SNOW  19  12  73 S9        29.98F WCI   9
LAKEVILLE      CLOUDY    19  12  73 S8        30.01F WCI   9
EDEN PRAIRIE   CLOUDY    21  13  71 S8        29.98F WCI  11
SOUTH ST PAUL  LGT SNOW  19  11  71 S3        30.01F
LAKE ELMO      CLOUDY    18  10  73 S8        30.01F WCI   7
$$
MNZ001>005-007-008-013>017-022>024-027-028-122200-
   Northwest Minnesota

CITY           SKY/WX    TMP DP  RH WIND       PRES   REMARKS
BEMIDJI        CLOUDY    17  14  88 SE8       29.80F WCI   6
HALLOCK        CLOUDY    28  27  93 S16       29.70F WCI  17
ROSEAU         CLOUDY    19  16  86 SE9       29.76F WCI   9
WARROAD        CLOUDY    16  12  86 SE9       29.77F WCI   4
CROOKSTON      PTSUNNY   30  28  93 S10       29.77F WCI  21
FOSSTON        CLOUDY    25  21  86 S12       29.78F WCI  14
DETROIT LAKES  CLOUDY    32  28  86 SW8       29.81F WCI  25
MOORHEAD       PTSUNNY   36  28  75 CALM      29.81F
PARK RAPIDS    CLOUDY    21  18  88 SE8       29.81F WCI  11
MAHNOMEN       CLOUDY    28  26  89 SW13      29.79F WCI  18
$$
MNZ006-009>011-018-025>026-122200-
   North Central Minnesota

CITY           SKY/WX    TMP DP  RH WIND       PRES   REMARKS
BAUDETTE       LGT SNOW  16  12  84 SE8       29.80F FOG     WCI   5
FLAG ISLAND    LGT SNOW  12  10  92 SE5       29.78F WCI   4
INTL FALLS     LGT SNOW  12   6  77 SE8       29.84F WCI   0
WASKISH        LGT SNOW  16  12  86 SE9       29.81F WCI   4
BIG FORK       FLURRIES  14   9  79 S7        29.85F WCI   4
LONGVILLE      CLOUDY    14  10  85 SE8       29.85F WCI   3
GRAND RAPIDS   FLURRIES  12   8  84 SE7       29.88F WCI   1
CRANE LAKE     CLOUDY     9   1  72 CALM      29.92F
ORR            FLURRIES  10   3  72 SE5       29.84F WCI   2
COOK           CLOUDY    10   5  79 SE3       29.88F
WALKER         CLOUDY    16  12  86 S5        29.83F WCI   9
$$
MNZ012-019>021-037-122200-
   Northeast Minnesota

CITY           SKY/WX    TMP DP  RH WIND       PRES   REMARKS
DULUTH         FLURRIES  11   5  77 S7        29.90F WCI   0
ELY            CLOUDY     7   0  72 CALM      29.88F
HIBBING        LGT SNOW   9   5  84 VRB3      29.88F FOG
EVELETH        FLURRIES  10   3  74 CALM      29.89F
DULUTH HARBOR  FLURRIES  14   7  73 SW7       29.99F WCI   4
TWO HARBORS    CLOUDY    16   5  62 CALM      29.91F
SILVER BAY     PTCLDY    14  -6  41 CALM      29.91F
GRAND MARAIS     N/A     14  -2  49 CALM      29.98F
G MARAIS ARPRT CLOUDY     7  -8  51 CALM      29.86F
$$
MNZ029>031-032-039>041-046>048-054>057-064-122200-
   West Central Minnesota

CITY           SKY/WX    TMP DP  RH WIND       PRES   REMARKS
FERGUS FALLS   MOSUNNY   36  30  80 SW3       29.85F
WHEATON        PTSUNNY   43  28  56 W15       29.86F
MORRIS         CLOUDY    41  30  65 W15       29.84F
ALEXANDRIA     CLOUDY    30  26  85 S8        29.86F WCI  22
ELBOW LAKE     PTSUNNY   38  31  76 SW7       29.84F HAZE
WADENA         MOSUNNY   27  23  86 S8        29.82F WCI  18
GLENWOOD       MOSUNNY   32  28  86 SW8       29.87F WCI  25
APPLETON         N/A     43  28  56 W13       29.86F
BENSON         SUNNY     39  28  65 W12       29.87F
ORTONVILLE     SUNNY     41  28  60 SW8       29.86F
MADISON        MOSUNNY   43  30  61 W16       29.88F
WILLMAR        PTSUNNY   37  30  75 SW12      29.90F
$$
MNZ033>034-036-042>043-049>051-058-059-122200-
   Central Minnesota

CITY           SKY/WX    TMP DP  RH WIND       PRES   REMARKS
ST CLOUD       CLOUDY    21  15  78 S10       29.93F WCI  10
SAUK CENTRE    FAIR      29  24  82 S7        29.88F WCI  22
PAYNESVILLE    CLOUDY    30  25  82 S5        29.91F WCI  25
AITKIN         LGT SNOW  12   9  85 S6        29.89F WCI   3
PINE RIVER     CLOUDY    14  10  85 S8        29.89F WCI   3
BRAINERD       CLOUDY    17  12  80 S9        29.89F WCI   6
STAPLES        CLOUDY    21  18  86 S8        29.85F WCI  12
LONG PRAIRIE   PTSUNNY   27  21  80 S8        29.88F FOG     WCI  18
LITTLE FALLS   MOSUNNY   21  12  68 SE8       29.90F WCI  12
LITCHFIELD     CLOUDY    28  23  80 S3        29.92F
BUFFALO        CLOUDY    21  14  75 SE5       29.96F WCI  15
MAPLE LAKE     CLOUDY    23  18  79 S6        29.94F WCI  16
HUTCHINSON     CLOUDY    28  22  78 S7        29.94F WCI  21
$$
MNZ037-044-045-052-053-122200-
   East Central Minnesota

CITY           SKY/WX    TMP DP  RH WIND       PRES   REMARKS
PRINCETON      CLOUDY    18  12  79 SE8       29.95F WCI   7
MORA           CLOUDY    14  10  85 S6        29.96F WCI   5
CAMBRIDGE      LGT SNOW  18   9  68 SE7       29.97F WCI   8
RUSH CITY      LGT SNOW  14   9  81 S6        29.98F WCI   5
MOOSE LAKE     FLURRIES  14   9  79 S5        29.92F WCI   6
HINCKLEY       LGT SNOW  14  10  85 S6        29.96F WCI   5
CLOQUET        LGT SNOW  12   7  79 S3        29.91F
MCGREGOR       CLOUDY    18  12  79 SE7       29.90F WCI   8
$$
MNZ071>073-080-081-089-090-097-098-122200-
   Southwest Minnesota

CITY           SKY/WX    TMP DP  RH WIND       PRES   REMARKS
MONTEVIDEO     PTSUNNY   43  30  61 W6G16     29.89F
GRANITE FALLS  MOSUNNY   42  31  63 SW16      29.94F
CANBY          MOSUNNY   42  30  61 SW16G26   29.89F
MARSHALL       MOSUNNY   40  29  64 W14       29.91F
REDWOOD FALLS  MOSUNNY   37  26  64 SW9       29.93F
OLIVIA         CLOUDY    36  30  80 SW10      29.91F
PIPESTONE      MOSUNNY   37  28  70 SW13      29.94F
WINDOM         MOSUNNY   36  21  55 SW15      29.96F
WORTHINGTON    PTSUNNY   34  26  72 SW15      29.97F WCI  24
JACKSON        SUNNY     36  27  69 MISG      29.98F
TRACY          PTSUNNY   39  31  72 SW16G24   29.93F
SLAYTON        PTSUNNY   36  28  73 W13       29.98F
$$
MNZ065>067-074>077-082>085-091>093-122200-
   South Central Minnesota

CITY           SKY/WX    TMP DP  RH WIND       PRES   REMARKS
MANKATO        CLOUDY    26  20  77 S7        29.98F WCI  18
NEW ULM        SUNNY     34  25  69 SW8       29.95F WCI  27
ST JAMES       MOSUNNY   34  25  69 S7        29.98F WCI  28
FAIRMONT       CLOUDY    34  24  67 SW14      29.99F WCI  25
GLENCOE        CLOUDY    26  20  78 S7        29.95F WCI  19
FARIBAULT      CLOUDY    21  16  79 S8        30.00F WCI  12
OWATONNA       CLOUDY    23  18  80 S12       30.00F WCI  12
WASECA         CLOUDY    25  19  80 S9        30.01F WCI  15
ALBERT LEA     CLOUDY    25  16  68 SW6       30.01F WCI  18
$$
MNZ078>079-086>088-094>096-122200-
   Southeast Minnesota

CITY           SKY/WX    TMP DP  RH WIND       PRES   REMARKS
ROCHESTER      CLOUDY    19  11  70 SW8       30.01F WCI   9
RED WING       CLOUDY    18   7  62 S5        30.03F WCI  11
STANTON        CLOUDY    22  14  70 S7        29.99F WCI  14
DODGE CENTER   CLOUDY    19  14  79 SW8       30.00F WCI   9
WINONA           N/A     21   5  49 CALM      30.07F
PRESTON        CLOUDY    20  10  66 W5        30.02F WCI  13
$$
ABBREVIATIONS USED IN REMARKS
   TC - TEMPERATURES IN CELSIUS
  WCI - WIND CHILL INDEX
   HX - HEAT INDEX
  VSB - VISIBILITY
$$




USA.gov is the U.S. government's official web portal to all federal, state and local government web resources and services.